Weather History for Wheeler AAF, HI

Change the Weather History Date:

Thursday, August 1, 2013

  Actual Average Record
Temperature  
Mean Temperature 76 °F -  
Max Temperature 81 °F 81 °F 87 °F (2002)
Min Temperature 70 °F 67 °F 65 °F (2008)
Cooling Degree Days 10    
Growing Degree Days 26 (Base 50)    
Moisture  
Dew Point 65 °F    
Average Humidity 76    
Maximum Humidity 84    
Minimum Humidity 52    
Precipitation  
Precipitation 0.00 in - - ()
Sea Level Pressure  
Sea Level Pressure 30.06 in    
Wind  
Wind Speed 6 mph (ENE)    
Max Wind Speed 16 mph    
Max Gust Speed 25 mph    
Visibility 10 miles    
Events Rain    
Averages and records for this station are not official NWS values.
T = Trace of Precipitation, MM = Missing Value Source: NWS Daily Summary

Daily Weather History Graph

Daily Weather History Graph

Search for Another Location

Airport:

Trip Planner

Search our weather history database for the weather conditions in past years. The results will help you decide how hot, cold, wet, or windy it might be!

Date:

Astronomy

Aug. 01, 2013 Rise Set
Actual Time 6:05 AM HST 7:11 PM HST
Civil Twilight 5:41 AM HST 7:34 PM HST
Nautical Twilight 5:13 AM HST 8:02 PM HST
Astronomical Twilight 4:44 AM HST 8:31 PM HST
Moon 1:54 AM HST (8/1) 3:24 PM HST (8/1)
Length of Visible Light 13h 53m
Length of Day
13h 05m
Waning Crescent, 21% of the Moon is Illuminated
Aug 1
Waning Crescent
Aug 6
New
Aug 14
First Quarter
Aug 20
Full
Aug 27
Last Quarter

Hourly Weather History & Observations

Time (HST) Temp. Heat Index Dew Point Humidity Pressure Visibility Wind Dir Wind Speed Gust Speed Precip Events Conditions
12:55 AM 73.9 °F - 64.6 °F 72% 30.08 in 10.0 mi ENE 9.2 mph - N/A   Mostly Cloudy
1:55 AM 73.6 °F - 63.5 °F 71% 30.07 in 10.0 mi East 11.5 mph - N/A   Clear
2:55 AM 73.2 °F - 64.2 °F 73% 30.06 in 10.0 mi East 9.2 mph - N/A   Mostly Cloudy
3:55 AM 73.2 °F - 64.6 °F 74% 30.06 in 10.0 mi Calm Calm - N/A   Scattered Clouds
4:07 AM 73.4 °F - 64.4 °F 73% 30.06 in 10.0 mi Calm Calm - N/A   Light Drizzle
4:26 AM 71.6 °F - 64.4 °F 78% 30.06 in 10.0 mi Calm Calm - N/A   Overcast
4:32 AM 71.6 °F - 64.4 °F 78% 30.06 in 10.0 mi Variable 3.5 mph - N/A   Light Drizzle
4:41 AM 73.4 °F - 66.2 °F 78% 30.06 in 10.0 mi East 8.1 mph - N/A   Overcast
4:55 AM 72.5 °F - 66.4 °F 81% 30.06 in 10.0 mi ENE 3.5 mph - 0.00 in   Overcast
4:57 AM 71.6 °F - 66.2 °F 83% 30.06 in 10.0 mi ENE 3.5 mph - N/A   Light Drizzle
5:13 AM 71.6 °F - 66.2 °F 83% 30.06 in 10.0 mi Calm Calm - N/A   Mostly Cloudy
5:19 AM 71.6 °F - 66.2 °F 83% 30.07 in 10.0 mi East 8.1 mph - N/A Rain Light Rain
5:30 AM 71.6 °F - 66.2 °F 83% 30.07 in 10.0 mi ENE 6.9 mph - N/A   Mostly Cloudy
5:55 AM 70.7 °F - 65.7 °F 84% 30.07 in 10.0 mi ENE 5.8 mph - 0.00 in   Scattered Clouds
6:55 AM 71.4 °F - 65.8 °F 82% 30.08 in 10.0 mi Variable 3.5 mph - N/A   Mostly Cloudy
7:23 AM 71.6 °F - 66.2 °F 83% 30.07 in 10.0 mi Calm Calm - N/A   Light Drizzle
7:50 AM 71.6 °F - 66.2 °F 83% 30.08 in 10.0 mi Calm Calm - N/A   Light Drizzle
7:55 AM 72.3 °F - 66.7 °F 83% 30.08 in 10.0 mi Calm Calm - 0.00 in   Light Drizzle
8:02 AM 71.6 °F - 66.2 °F 83% 30.08 in 10.0 mi Calm Calm - N/A   Light Drizzle
8:04 AM 71.6 °F - 66.2 °F 83% 30.08 in 10.0 mi Variable 3.5 mph - N/A   Overcast
8:35 AM 73.4 °F - 66.2 °F 78% 30.07 in 10.0 mi ENE 3.5 mph - N/A Rain Light Rain
8:46 AM 73.4 °F - 68.0 °F 83% 30.07 in 10.0 mi East 5.8 mph - N/A   Overcast
8:55 AM 74.1 °F - 67.3 °F 79% 30.07 in 10.0 mi Calm Calm - 0.00 in   Mostly Cloudy
9:55 AM 75.6 °F - 65.8 °F 72% 30.07 in 10.0 mi Variable 5.8 mph - N/A   Overcast
10:55 AM 76.3 °F - 65.7 °F 70% 30.06 in 10.0 mi East 15.0 mph 25.3 mph N/A   Overcast
11:55 AM 77.4 °F - 62.8 °F 61% 30.06 in 10.0 mi ENE 9.2 mph 17.3 mph N/A   Overcast
12:48 PM 78.8 °F - 64.4 °F 61% 30.05 in 10.0 mi East 12.7 mph - N/A   Overcast
12:55 PM 79.2 °F - 64.8 °F 61% 30.05 in 10.0 mi ENE 11.5 mph - N/A   Overcast
1:55 PM 78.4 °F - 64.9 °F 63% 30.05 in 10.0 mi East 11.5 mph - N/A   Overcast
2:55 PM 81.1 °F 82.1 °F 62.2 °F 52% 30.02 in 10.0 mi ENE 10.4 mph 23.0 mph N/A   Partly Cloudy
4:55 PM 78.1 °F - 64.6 °F 63% 30.01 in 10.0 mi East 11.5 mph - N/A   Mostly Cloudy
5:45 PM 77.0 °F - 66.2 °F 69% 30.01 in 8.0 mi East 13.8 mph 20.7 mph N/A   Light Drizzle
5:55 PM 75.2 °F - 66.0 °F 73% 30.02 in 9.0 mi East 16.1 mph 21.9 mph 0.00 in   Mostly Cloudy
6:55 PM 72.3 °F - 65.3 °F 78% 30.04 in 10.0 mi ENE 10.4 mph - N/A   Scattered Clouds
7:55 PM 72.3 °F - 65.1 °F 78% 30.05 in 10.0 mi East 5.8 mph - N/A   Clear
8:55 PM 73.0 °F - 64.9 °F 76% 30.05 in 10.0 mi Calm Calm - N/A   Mostly Cloudy
9:55 PM 72.5 °F - 65.5 °F 79% 30.07 in 10.0 mi Variable 3.5 mph - N/A   Overcast
10:55 PM 72.7 °F - 65.5 °F 78% 30.07 in 10.0 mi Calm Calm - N/A   Mostly Cloudy
11:31 PM 73.4 °F - 66.2 °F 78% 30.06 in 10.0 mi NE 6.9 mph - N/A   Light Drizzle
11:40 PM 73.4 °F - 66.2 °F 78% 30.06 in 10.0 mi ENE 5.8 mph - N/A   Overcast
11:55 PM 72.0 °F - 65.7 °F 80% 30.06 in 10.0 mi Calm Calm - 0.00 in   Overcast